Theta_e
339 341 344 343 342 342 344 344 343 344 344 342 341 339 342 339 335 327 327 328 329 331 333 335 337 338 340 341 343 344 345 345 345 345 345 345 345 345 346 346 346 347 347
341 342 342 340 340 343 346 345 344 345 345 341 341 339 338 337 333 325 326 328 330 333 336 338 339 340 341 343 344 344 344 344 344 344 344 345 344 343 343 343 342 342 343
344 342 342 344 345 345 346 346 345 345 347 341 341 340 340 340 337 330 331 332 334 336 338 340 342 343 343 343 344 344 344 345 345 345 345 343 342 341 338 338 339 343 341
344 344 344 345 346 345 345 346 347 346 342 343 343 341 340 341 343 343 339 336 336 337 339 341 342 343 343 343 344 345 347 346 346 346 345 341 337 337 337 339 335 338 342
344 345 345 342 345 344 347 347 351 343 342 342 342 342 341 341 342 344 344 343 344 344 342 342 342 342 343 344 345 346 348 344 345 344 339 342 342 340 337 339 337 338 338
345 345 346 345 345 347 345 349 350 346 343 343 342 344 343 342 341 343 344 343 344 345 345 345 346 345 346 348 350 350 349 344 345 343 343 344 342 340 338 338 339 338 338
342 344 346 343 344 347 348 350 349 344 344 348 347 344 343 343 341 342 343 343 344 345 344 344 344 345 345 346 350 351 345 344 344 344 345 343 339 338 337 338 339 343 339
344 346 347 338 345 347 349 351 349 347 345 348 349 346 340 342 344 344 344 343 344 344 345 346 345 344 345 347 349 347 344 344 344 344 345 344 344 342 338 340 345 341 339
346 346 347 337 344 346 347 348 350 349 349 344 344 348 342 343 345 343 344 345 345 345 345 347 349 349 347 348 351 346 346 345 346 345 345 347 348 347 343 342 345 339 338
348 348 348 341 343 346 347 350 349 348 347 346 348 341 342 343 341 344 343 339 339 344 343 346 346 350 350 349 348 347 347 347 343 345 347 348 348 347 345 342 345 339 338
348 344 347 345 344 343 349 351 350 343 348 347 348 343 342 341 341 342 340 343 340 341 340 340 336 343 345 346 347 347 348 345 346 349 351 350 346 345 344 343 344 342 338
349 350 348 348 343 345 349 350 349 346 345 349 349 343 345 346 340 339 336 335 333 336 342 340 342 345 344 345 347 346 347 347 348 350 347 345 344 344 344 343 343 345 342
350 350 350 350 346 348 350 351 349 348 347 350 351 347 344 345 344 343 341 338 334 336 344 345 343 347 347 346 346 347 346 347 351 349 348 347 346 345 348 349 348 344 345
349 349 349 350 347 345 350 351 352 350 348 351 350 349 349 347 348 346 344 342 342 342 343 346 347 348 348 348 350 347 349 351 350 351 352 350 349 350 349 352 353 348 345
347 347 349 350 349 349 349 351 352 349 350 352 350 349 350 347 347 348 346 346 346 344 341 344 346 349 350 350 352 352 351 351 348 347 346 347 350 351 350 352 352 348 345
348 349 348 349 350 350 350 350 350 351 349 352 351 350 351 349 346 347 349 349 347 346 338 344 349 349 351 350 348 346 346 346 345 345 347 351 350 350 349 349 347 347 347
348 349 349 350 349 349 349 351 351 350 350 351 351 349 349 349 350 349 349 350 351 349 345 347 349 350 351 350 348 345 345 344 345 348 351 351 348 350 347 346 347 348 347
349 350 350 350 349 349 350 350 352 350 348 349 349 349 349 349 350 350 350 348 348 349 348 347 349 348 346 346 346 345 344 348 348 352 352 348 346 350 349 349 346 345 346
350 348 349 348 347 350 349 351 350 351 351 348 350 350 351 350 350 350 349 348 349 348 348 348 345 346 348 347 344 344 347 349 345 347 344 338 344 345 346 348 347 346 348
351 350 345 344 349 351 351 352 351 350 351 352 351 349 349 350 350 351 349 349 349 347 345 345 347 349 349 341 344 346 346 348 346 341 336 333 344 340 337 335 332 331 331
351 350 350 350 350 350 351 351 351 350 350 351 350 349 348 348 349 349 348 348 347 347 348 349 349 348 344 338 342 343 345 345 345 332 331 330 340 339 328 323 319 321 328
349 348 349 351 351 349 349 347 348 348 349 349 348 346 347 347 347 348 347 347 347 348 349 349 342 337 338 340 341 342 340 340 344 327 327 328 328 338 328 323 319 318 333
347 347 347 347 347 347 347 346 346 347 346 344 343 341 340 342 343 345 344 344 344 344 341 336 334 337 337 338 338 336 332 335 323 320 323 329 322 327 329 319 317 317 333
345 346 346 345 345 345 345 344 345 345 343 340 339 338 339 338 340 340 339 335 330 330 332 334 331 328 329 331 332 329 325 326 337 320 319 328 317 318 330 318 313 310 320
341 341 339 339 339 340 341 342 344 344 343 340 337 331 330 333 330 327 328 326 331 327 324 324 322 321 322 322 322 324 322 321 323 316 314 320 311 312 317 317 308 307 308
334 329 332 336 338 340 340 339 339 342 339 330 319 317 318 320 320 318 319 329 330 323 321 319 318 318 317 316 317 317 319 317 316 311 306 315 306 305 309 317 307 306 305
Wind_Speed
8 5 2 1 1 1 5 5 5 6 9 3 3 8 8 5 4 3 3 3 2 1 0 1 2 3 4 5 7 8 10 11 12 13 13 13 13 13 14 14 15 16 18
4 2 1 3 4 4 6 6 4 7 8 1 4 4 4 4 1 2 3 3 3 2 1 1 2 4 5 6 7 9 10 12 14 15 13 11 11 11 12 12 13 15 17
3 1 2 3 2 4 6 7 5 5 5 3 5 5 6 3 2 2 2 2 2 1 1 2 2 4 6 8 9 11 12 14 14 13 12 10 11 12 12 13 14 14 15
5 1 2 4 5 6 7 6 4 1 4 2 3 4 7 5 2 1 2 2 2 2 3 4 5 7 9 11 12 14 16 17 16 13 10 10 11 13 13 14 15 14 14
3 2 4 5 2 5 5 6 7 5 4 4 4 4 5 6 5 3 4 4 6 7 8 7 11 14 16 17 17 16 17 18 16 13 11 12 13 14 14 16 17 18 16
5 3 7 3 3 5 7 6 8 5 5 8 7 7 8 7 8 7 7 8 9 12 14 16 15 17 14 17 17 14 13 16 15 14 14 15 15 16 15 15 18 19 17
6 3 2 3 4 6 8 8 6 7 8 2 2 2 7 10 9 10 9 8 10 12 12 15 15 16 17 15 13 12 11 16 16 15 15 17 18 18 16 16 19 20 17
6 3 3 5 5 4 7 9 6 5 10 7 4 3 3 2 1 5 11 10 12 11 9 12 12 15 13 11 11 7 14 16 17 16 17 18 20 21 20 18 19 20 15
6 4 3 7 5 5 7 8 7 5 5 8 8 3 2 2 2 7 8 6 5 2 4 7 10 10 6 5 6 12 16 16 17 16 17 19 21 21 20 19 20 19 13
10 6 3 5 6 6 7 6 5 6 3 6 7 7 6 2 2 1 4 2 5 1 4 5 14 10 8 8 9 14 16 16 13 16 20 23 23 21 19 19 20 19 15
11 8 6 5 5 7 7 5 5 4 7 8 4 4 3 4 3 2 2 4 5 4 8 6 5 8 7 7 10 15 16 15 17 21 25 24 19 19 17 18 20 21 18
11 10 8 6 7 8 7 6 3 4 4 8 9 6 4 2 1 1 1 2 4 3 8 10 5 9 4 9 15 17 14 17 21 24 21 19 17 18 18 18 19 20 20
13 12 13 9 7 8 9 7 5 4 3 2 5 6 7 4 3 2 1 2 2 3 4 12 6 6 9 12 15 16 14 18 17 17 17 18 18 17 18 18 17 16 17
14 13 11 11 7 8 8 8 6 7 5 5 4 3 4 3 4 3 3 2 2 3 3 4 3 12 16 14 15 13 13 12 14 13 16 18 19 18 18 18 15 11 13
13 13 15 15 12 10 10 9 7 7 6 6 4 3 5 4 0 1 1 2 1 1 2 4 6 12 14 13 17 14 14 14 15 15 17 19 19 17 15 14 13 9 13
13 15 18 18 16 13 12 11 9 7 8 7 4 3 3 3 3 3 2 3 5 2 1 2 5 10 12 13 16 16 14 14 15 17 18 17 18 21 15 12 11 15 17
13 13 15 18 16 13 12 11 11 9 9 9 8 6 6 5 4 5 4 1 2 4 4 2 2 6 7 11 15 17 17 16 15 17 14 16 21 25 23 18 16 15 17
14 13 15 17 16 14 13 13 13 12 10 10 9 8 7 6 6 7 6 4 4 3 2 2 3 4 6 11 11 14 15 14 17 18 17 20 23 23 23 19 14 13 14
16 14 19 19 17 17 17 14 14 14 12 12 10 9 9 9 7 8 6 3 2 2 2 2 3 5 6 13 14 15 15 12 18 18 20 20 23 26 26 25 24 22 18
16 14 15 15 17 15 17 15 16 15 13 13 13 12 10 9 8 7 6 5 4 5 3 2 2 4 4 10 12 15 17 12 16 21 21 22 22 25 29 29 30 27 23
17 15 14 15 16 17 17 18 18 17 17 15 12 10 9 9 7 6 7 7 6 4 2 2 3 3 4 8 9 10 11 10 8 22 17 22 23 22 28 32 31 27 25
21 20 18 16 14 15 17 18 16 16 16 14 13 8 5 4 5 6 6 4 2 2 1 1 4 5 7 6 6 6 9 7 5 18 12 18 20 20 23 28 29 28 26
14 21 24 20 18 16 15 12 15 12 13 13 12 9 7 5 6 7 6 3 4 4 3 3 3 4 6 7 7 7 10 9 9 21 12 12 22 17 17 24 27 25 20
14 18 20 17 14 12 8 6 6 11 11 10 9 8 7 7 8 7 5 5 6 7 7 12 15 14 11 9 9 7 9 6 5 19 22 7 23 21 7 20 25 26 23
16 19 20 17 14 11 9 7 2 10 11 9 8 8 7 8 8 7 8 10 16 23 20 20 20 19 17 13 10 6 14 12 8 12 25 10 21 22 8 15 24 27 26
15 17 16 13 11 12 14 11 4 10 7 9 9 7 7 7 8 7 8 15 24 20 20 19 17 16 17 18 17 17 14 15 7 7 22 10 20 17 9 4 20 25 29
Wind_Direction
162 160 144 149 39 27 359 4 14 18 8 3 224 230 247 243 272 230 196 180 160 137 100 324 319 320 328 339 339 337 333 330 325 322 321 320 314 306 304 306 302 297 291
192 212 125 80 21 55 28 27 14 359 4 26 123 141 128 212 329 208 177 175 174 186 171 340 325 319 324 331 333 334 332 330 329 330 327 330 335 330 326 320 308 306 298
148 150 75 0 38 44 12 5 334 325 350 77 120 151 143 141 97 72 131 169 193 206 239 257 291 311 320 322 331 332 331 333 332 333 333 343 336 335 334 336 333 332 321
137 160 83 75 76 38 42 33 11 145 157 176 157 150 193 204 197 162 257 281 283 275 270 287 298 313 317 320 328 330 339 335 339 351 359 349 346 343 343 346 343 340 341
141 250 154 122 49 43 33 46 48 154 161 174 193 212 216 220 227 262 269 276 286 294 291 297 302 309 314 317 319 325 332 336 343 352 4 359 349 345 345 349 352 350 342
173 115 131 114 97 65 71 49 44 112 169 219 244 253 247 242 234 248 282 270 287 297 296 304 305 311 322 329 333 325 321 333 340 347 356 356 355 351 345 346 348 348 345
207 169 187 190 147 73 68 58 91 98 84 44 211 219 241 235 260 275 286 294 292 308 306 303 302 306 308 311 326 343 327 339 341 344 356 3 3 356 354 350 347 349 351
172 177 229 206 147 111 82 69 69 102 72 81 122 111 17 29 259 283 246 261 280 293 310 335 318 309 311 326 335 353 341 340 345 343 353 359 1 357 357 354 354 355 360
179 206 216 184 161 121 106 86 52 64 104 69 77 140 76 227 335 64 108 126 127 197 324 11 9 333 304 323 333 357 349 345 345 337 346 350 349 349 351 356 358 2 6
198 194 186 187 161 126 123 102 75 53 93 135 87 94 89 110 148 308 209 180 69 116 71 70 39 34 55 23 352 349 350 353 346 339 345 344 343 345 343 353 358 5 6
214 211 203 189 183 161 144 115 70 70 86 107 131 138 124 77 72 112 253 263 261 2 353 356 34 21 35 17 343 351 355 6 354 348 350 349 343 350 346 352 355 1 5
221 222 210 209 188 173 166 162 134 88 139 80 79 81 186 192 261 104 58 314 293 291 20 20 80 56 69 357 344 344 348 351 349 352 5 4 349 353 351 346 348 352 2
222 229 223 221 213 183 179 184 193 170 140 114 75 66 82 69 52 63 55 30 313 328 354 55 81 36 356 344 343 345 348 352 4 11 17 13 8 7 2 352 346 345 355
228 226 230 226 225 206 207 198 188 199 203 162 127 107 109 71 28 46 34 41 337 327 340 2 23 31 11 1 349 344 358 31 35 31 16 5 357 353 350 349 354 349 3
226 227 228 232 228 220 218 221 221 222 218 204 194 194 187 172 249 260 336 352 82 348 302 347 18 20 32 37 36 48 44 34 21 13 7 4 357 352 340 346 349 36 27
236 232 229 223 223 230 227 222 228 239 230 226 220 230 203 197 186 196 230 276 240 212 265 332 20 8 32 32 24 20 15 11 7 9 12 17 28 19 15 15 56 58 35
232 240 223 224 226 233 228 236 233 234 246 242 240 246 228 223 226 214 186 178 110 201 210 267 9 23 8 350 351 360 2 5 14 26 30 47 38 35 45 62 64 53 39
221 229 216 220 222 229 228 236 233 240 244 250 239 233 231 234 231 217 212 212 223 216 254 279 295 346 7 0 358 355 7 24 38 49 56 47 41 42 45 47 46 37 28
226 236 234 226 229 231 228 226 235 238 244 241 246 254 250 260 256 236 242 236 231 263 278 301 325 351 360 8 2 14 29 49 45 45 42 40 51 47 51 53 51 47 39
231 234 226 226 224 227 227 231 229 227 235 237 246 249 249 246 246 226 229 244 244 273 278 330 22 28 24 8 21 22 20 34 31 41 36 43 58 58 52 48 43 40 42
239 241 243 237 231 231 226 225 232 235 226 225 225 223 231 232 223 231 246 242 249 260 306 0 71 39 11 13 22 5 13 36 47 30 38 36 53 55 46 41 36 32 34
240 237 234 228 230 230 235 250 243 229 217 219 206 195 212 199 236 230 235 238 247 265 253 84 41 8 10 6 1 20 20 21 16 15 28 28 38 51 43 39 35 34 44
248 236 229 223 221 223 242 256 237 212 197 205 206 203 198 200 170 174 164 139 105 85 70 61 61 54 71 53 67 51 30 48 67 25 23 21 19 40 44 35 33 37 44
252 231 218 208 204 218 225 240 209 185 192 193 194 191 188 176 164 170 166 131 109 98 105 111 105 94 88 82 72 48 28 46 134 22 23 38 7 7 49 29 26 29 33
224 210 197 191 180 161 144 108 85 172 174 161 154 154 156 158 151 161 163 132 116 110 106 107 102 97 93 87 71 39 35 35 41 28 20 16 4 357 358 20 11 18 19
210 182 170 178 202 211 227 235 206 148 143 147 139 143 140 139 137 133 141 138 131 123 124 116 102 91 79 68 58 54 51 61 58 33 17 16 7 10 336 351 2 7 12